Retour au catalogue

COSMOS 970 DEB

ActifLEO
NORAD 10879·DEBRIS·🇷🇺 Russia

Lancé Dec 21, 1977 depuis Baikonur Cosmodrome

Loading…

Prochains Passages (prochaines 24 heures)

TLE

FraisSource: Space-Track

Époque: Sep 14, 2026, 08:20 UTC

1 10879U 77121AA  26257.34766223  .00000229  00000-0  29954-3 0  9993
2 10879  65.8246 247.3780 0109423  95.9075 265.4473 13.77128544642873

Suivez COSMOS 970 DEB en temps réel avec AllMySat

Download on the App Store